This demonstration page uses our WeatherBlox Daily Observations layout. Learn more.

Left ArrowRight Arrow

39.08367, -84.50855

Hourly Observations for July 14, 2017

Temp ( °F °C ) Dew Point ( °F °C ) Humidity (%) Winds ( mph kmh ) Pressure ( in mb ) Visibility ( mi km ) Precip ( " mm )
12:53 am 00:53 Partly Cloudy 77 25 77 25 100 100 N N/A 30.03 1017 7 11.26538 0.01 0.254
1:53 am 01:53 Cloudy 76 24.4 75 23.9 97 97 N N/A 30.04 1017 9 14.48406 N/A
2:07 am 02:07 Cloudy with Heavy Rain 75 23.9 75 23.9 100 100 VRB 7 11 30.03 1017 1.75 2.816345 0.2 5.08
2:17 am 02:17 Mostly Cloudy with Light Rain 76 24.4 74 23.3 94 94 N N/A 30.03 1017 3 4.82802 0.23 5.842
2:34 am 02:34 Mostly Cloudy with Nearby Thunderstorms 75 23.9 74 23.3 96 96 SE 3 6 30.03 1017 10 16.0934 0.23 5.842
2:49 am 02:49 Partly Cloudy 73 23 73 23 100 100 SE 5 7 30.03 1017 7 11.26538 0.23 5.842
2:53 am 02:53 Partly Cloudy with Mist and Fog 74 23.3 73 22.8 97 97 SE 5 7 30.03 1017 6 9.65604 0.23 5.842
3:23 am 03:23 Mostly Cloudy with Light Thunderstorms 75 23.9 75 23.9 100 100 W 6 9 30.03 1017 2.5 4.02335 0.1 2.54
3:28 am 03:28 Mostly Cloudy with Heavy Thunderstorms 75 23.9 75 23.9 100 100 N N/A 30.03 1017 0.75 1.207005 0.28 7.112
3:36 am 03:36 Cloudy with Light Thunderstorms 74 23.3 74 23.3 100 100 SE 3 6 30.03 1017 2 3.21868 0.3 7.62
3:43 am 03:43 Cloudy with Thunderstorms 74 23.3 74 23.3 100 100 SW 3 6 30.03 1017 8 12.87472 0.3 7.62
3:53 am 03:53 Cloudy with Nearby Thunderstorms 74 23.3 74 23.3 100 100 W 3 6 30.04 1017 10 16.0934 0.3 7.62
4:10 am 04:10 Cloudy 74 23.3 74 23.3 100 100 N N/A 30.03 1017 9 14.48406 N/A
4:53 am 04:53 Mostly Cloudy with Mist and Fog 73 22.8 73 22.8 100 100 N N/A 30.04 1017 5 8.0467 N/A
5:53 am 05:53 Mostly Cloudy 74 23.3 73 22.8 97 97 WSW 3 6 30.06 1018 8 12.87472 N/A
6:53 am 06:53 Partly Cloudy with Mist and Fog 73 22.8 73 22.8 100 100 N N/A 30.05 1018 5 8.0467 N/A
7:53 am 07:53 Partly Cloudy 76 24.4 75 23.9 97 97 SW 5 7 30.06 1018 9 14.48406 N/A
8:53 am 08:53 Mostly Cloudy 77 25 75 23.9 94 94 W 7 11 30.07 1018 10 16.0934 0.01 0.254
9:21 am 09:21 Mostly Cloudy 77 25 75 23.9 94 94 WSW 6 9 30.06 1018 10 16.0934 N/A
9:53 am 09:53 Cloudy 77 25 74 23.3 90 90 WSW 7 11 30.08 1019 10 16.0934 N/A
10:53 am 10:53 Cloudy 78 25.6 75 23.9 90 90 W 8 13 30.08 1019 10 16.0934 N/A
11:44 am 11:44 Cloudy 79 26.1 75 23.9 88 88 W 10 17 30.06 1018 8 12.87472 N/A
11:53 am 11:53 Mostly Cloudy 80 26.7 76 24.4 87 87 W 7 11 30.08 1019 8 12.87472 N/A
12:28 pm 12:28 Mostly Cloudy 81 27.2 75 23.9 82 82 WSW 7 11 30.06 1018 10 16.0934 N/A
12:53 pm 12:53 Mostly Cloudy 82 27.8 74 23.3 77 77 SW 9 15 30.07 1018 10 16.0934 N/A
1:53 pm 13:53 Mostly Cloudy 85 29.4 74 23.3 70 70 WNW 8 13 30.04 1017 10 16.0934 N/A
2:53 pm 14:53 Partly Cloudy 85 29.4 72 22.2 65 65 W 10 17 30.03 1017 10 16.0934 N/A
3:53 pm 15:53 Mostly Sunny 86 30 72 22.2 63 63 SW 14 22 30.02 1017 10 16.0934 N/A
4:53 pm 16:53 Partly Cloudy 85 29.4 71 21.7 63 63 W 7 11 30.01 1016 10 16.0934 N/A
5:53 pm 17:53 Partly Cloudy 86 30 70 21.1 59 59 WNW 12 19 30.02 1017 10 16.0934 N/A
6:53 pm 18:53 Mostly Cloudy 83 28.3 69 20.6 63 63 NW 10 17 30.02 1017 10 16.0934 N/A
7:53 pm 19:53 Mostly Sunny 82 27.8 66 18.9 58 58 W 8 13 30.03 1017 10 16.0934 N/A
8:53 pm 20:53 Sunny 80 26.7 67 19.4 64 64 W 6 9 30.03 1017 10 16.0934 N/A
9:53 pm 21:53 Clear 78 25.6 68 20 71 71 W 5 7 30.04 1017 10 16.0934 N/A
10:53 pm 22:53 Clear 78 25.6 66 18.9 67 67 NNW 7 11 30.06 1018 10 16.0934 N/A
11:53 pm 23:53 Mostly Cloudy 74 23.3 66 18.9 76 76 N 13 20 30.08 1019 10 16.0934 N/A

Powered by AerisWeather